Time,TemperatureF,DewpointF,PressureIn,WindDirection,WindDirectionDegrees,WindSpeedMPH,WindSpeedGustMPH,Humidity,HourlyPrecipIn,Conditions,Clouds,dailyrainin,SolarRadiationWatts/m^2,SoftwareType,DateUTC
2013-06-03 00:03:00,67.0,62.0,-100.00,NNW,331,0.0,0.0,84,0.00,,,0.00,0.000000,,2013-06-03 10:03:00,
2013-06-03 00:12:00,67.0,62.0,-100.00,NNW,331,0.0,0.0,84,0.00,,,0.00,0.000000,,2013-06-03 10:12:00,
2013-06-03 00:22:00,67.0,62.0,-100.00,NNW,331,0.0,0.0,84,0.00,,,0.00,0.000000,,2013-06-03 10:22:00,
2013-06-03 00:32:00,67.0,62.0,-100.00,NNW,331,0.0,0.0,84,0.00,,,0.00,0.000000,,2013-06-03 10:32:00,
2013-06-03 00:52:00,66.0,61.0,-100.00,NNW,337,7.0,10.0,85,0.00,,,0.00,0.000000,,2013-06-03 10:52:00,
2013-06-03 01:02:00,66.0,61.0,-100.00,NNW,337,7.0,10.0,85,0.00,,,0.00,0.000000,,2013-06-03 11:02:00,
2013-06-03 01:12:00,66.0,61.0,-100.00,NNW,337,7.0,10.0,85,0.00,,,0.00,0.000000,,2013-06-03 11:12:00,
2013-06-03 01:22:00,66.0,61.0,-100.00,NNW,337,7.0,10.0,85,0.00,,,0.00,0.000000,,2013-06-03 11:22:00,
2013-06-03 01:32:00,66.0,61.0,-100.00,NNW,337,7.0,10.0,85,0.00,,,0.00,0.000000,,2013-06-03 11:32:00,
2013-06-03 02:02:00,65.0,63.0,-100.00,North,6,0.0,8.0,92,0.00,,,0.00,0.000000,,2013-06-03 12:02:00,
2013-06-03 02:12:00,65.0,63.0,-100.00,North,6,0.0,8.0,92,0.00,,,0.00,0.000000,,2013-06-03 12:12:00,
2013-06-03 02:22:00,65.0,63.0,-100.00,North,6,0.0,8.0,92,0.00,,,0.00,0.000000,,2013-06-03 12:22:00,
2013-06-03 02:32:00,65.0,63.0,-100.00,North,6,0.0,8.0,92,0.00,,,0.00,0.000000,,2013-06-03 12:32:00,
2013-06-03 02:52:00,65.0,61.0,-100.00,NNW,347,0.0,7.0,86,0.00,,,0.00,0.000000,,2013-06-03 12:52:00,
2013-06-03 03:02:00,65.0,61.0,-100.00,NNW,347,0.0,7.0,86,0.00,,,0.00,0.000000,,2013-06-03 13:02:00,
2013-06-03 03:12:00,65.0,61.0,-100.00,NNW,347,0.0,7.0,86,0.00,,,0.00,0.000000,,2013-06-03 13:12:00,
2013-06-03 03:22:00,65.0,61.0,-100.00,NNW,347,0.0,7.0,86,0.00,,,0.00,0.000000,,2013-06-03 13:22:00,
2013-06-03 03:32:00,65.0,61.0,-100.00,NNW,347,0.0,7.0,86,0.00,,,0.00,0.000000,,2013-06-03 13:32:00,
2013-06-03 03:52:00,65.0,57.0,-100.00,North,359,1.0,8.0,75,0.00,,,0.00,0.000000,,2013-06-03 13:52:00,
2013-06-03 04:02:00,65.0,57.0,-100.00,North,359,1.0,8.0,75,0.00,,,0.00,0.000000,,2013-06-03 14:02:00,
2013-06-03 04:12:00,65.0,57.0,-100.00,North,359,1.0,8.0,75,0.00,,,0.00,0.000000,,2013-06-03 14:12:00,
2013-06-03 04:22:00,65.0,57.0,-100.00,North,359,1.0,8.0,75,0.00,,,0.00,0.000000,,2013-06-03 14:22:00,
2013-06-03 04:32:00,65.0,57.0,-100.00,North,359,1.0,8.0,75,0.00,,,0.00,0.000000,,2013-06-03 14:32:00,
2013-06-03 04:52:00,65.0,61.0,-100.00,ENE,60,0.0,5.0,86,0.00,,,0.00,0.000000,,2013-06-03 14:52:00,
2013-06-03 05:02:00,65.0,61.0,-100.00,ENE,60,0.0,5.0,86,0.00,,,0.00,0.000000,,2013-06-03 15:02:00,
2013-06-03 05:12:00,65.0,61.0,-100.00,ENE,60,0.0,5.0,86,0.00,,,0.00,0.000000,,2013-06-03 15:12:00,
2013-06-03 05:22:00,65.0,61.0,-100.00,ENE,60,0.0,5.0,86,0.00,,,0.00,0.000000,,2013-06-03 15:22:00,
2013-06-03 05:33:00,65.0,61.0,-100.00,ENE,60,0.0,5.0,86,0.00,,,0.00,0.000000,,2013-06-03 15:33:00,
2013-06-03 05:53:00,64.0,61.0,-100.00,North,9,2.0,6.0,90,0.00,,,0.00,0.000000,,2013-06-03 15:53:00,
2013-06-03 06:03:00,64.0,61.0,-100.00,North,9,2.0,6.0,90,0.00,,,0.00,0.000000,,2013-06-03 16:03:00,
2013-06-03 06:12:00,64.0,61.0,-100.00,North,9,2.0,6.0,90,0.00,,,0.00,0.000000,,2013-06-03 16:12:00,
2013-06-03 06:23:00,64.0,61.0,-100.00,North,9,2.0,6.0,90,0.00,,,0.00,0.000000,,2013-06-03 16:23:00,
2013-06-03 06:32:00,64.0,61.0,-100.00,North,9,2.0,6.0,90,0.00,,,0.00,0.000000,,2013-06-03 16:32:00,
2013-06-03 07:02:00,65.0,57.0,-100.00,NE,47,0.0,7.0,75,0.00,,,0.00,18.000000,,2013-06-03 17:02:00,
2013-06-03 07:12:00,65.0,57.0,-100.00,NE,47,0.0,7.0,75,0.00,,,0.00,18.000000,,2013-06-03 17:12:00,
2013-06-03 07:22:00,65.0,57.0,-100.00,NE,47,0.0,7.0,75,0.00,,,0.00,18.000000,,2013-06-03 17:22:00,
2013-06-03 07:33:00,65.0,57.0,-100.00,NE,47,0.0,7.0,75,0.00,,,0.00,18.000000,,2013-06-03 17:33:00,
2013-06-03 07:52:00,71.0,63.0,-100.00,SE,138,0.0,5.0,77,0.00,,,0.00,208.000000,,2013-06-03 17:52:00,
2013-06-03 08:02:00,71.0,63.0,-100.00,SE,138,0.0,5.0,77,0.00,,,0.00,208.000000,,2013-06-03 18:02:00,
2013-06-03 08:12:00,71.0,63.0,-100.00,SE,138,0.0,5.0,77,0.00,,,0.00,208.000000,,2013-06-03 18:12:00,
2013-06-03 08:22:00,71.0,63.0,-100.00,SE,138,0.0,5.0,77,0.00,,,0.00,208.000000,,2013-06-03 18:22:00,
2013-06-03 08:32:00,71.0,63.0,-100.00,SE,138,0.0,5.0,77,0.00,,,0.00,208.000000,,2013-06-03 18:32:00,
2013-06-03 09:03:00,72.0,62.0,-100.00,NNW,329,1.0,6.0,71,0.00,,,0.00,428.000000,,2013-06-03 19:03:00,
2013-06-03 09:12:00,72.0,62.0,-100.00,NNW,329,1.0,6.0,71,0.00,,,0.00,428.000000,,2013-06-03 19:12:00,
2013-06-03 09:22:00,72.0,62.0,-100.00,NNW,329,1.0,6.0,71,0.00,,,0.00,428.000000,,2013-06-03 19:22:00,
2013-06-03 09:32:00,72.0,62.0,-100.00,NNW,329,1.0,6.0,71,0.00,,,0.00,428.000000,,2013-06-03 19:32:00,
2013-06-03 09:52:00,74.0,63.0,-100.00,WSW,254,4.0,12.0,69,0.00,,,0.00,648.000000,,2013-06-03 19:52:00,
2013-06-03 10:02:00,74.0,63.0,-100.00,WSW,254,4.0,12.0,69,0.00,,,0.00,648.000000,,2013-06-03 20:02:00,
2013-06-03 10:12:00,74.0,63.0,-100.00,WSW,254,4.0,12.0,69,0.00,,,0.00,648.000000,,2013-06-03 20:12:00,
2013-06-03 10:22:00,74.0,63.0,-100.00,WSW,254,4.0,12.0,69,0.00,,,0.00,648.000000,,2013-06-03 20:22:00,
2013-06-03 10:32:00,74.0,63.0,-100.00,WSW,254,4.0,12.0,69,0.00,,,0.00,648.000000,,2013-06-03 20:32:00,
2013-06-03 10:52:00,74.0,63.0,-100.00,West,261,0.0,7.0,69,0.00,,,0.00,551.000000,,2013-06-03 20:52:00,
2013-06-03 11:02:00,74.0,63.0,-100.00,West,261,0.0,7.0,69,0.00,,,0.00,551.000000,,2013-06-03 21:02:00,
2013-06-03 11:12:00,74.0,63.0,-100.00,West,261,0.0,7.0,69,0.00,,,0.00,551.000000,,2013-06-03 21:12:00,
2013-06-03 11:22:00,74.0,63.0,-100.00,West,261,0.0,7.0,69,0.00,,,0.00,551.000000,,2013-06-03 21:22:00,
2013-06-03 11:32:00,74.0,63.0,-100.00,West,261,0.0,7.0,69,0.00,,,0.00,551.000000,,2013-06-03 21:32:00,
2013-06-03 11:53:00,75.0,63.0,-100.00,WNW,298,9.0,12.0,66,0.00,,,0.00,900.000000,,2013-06-03 21:53:00,
2013-06-03 12:03:00,75.0,63.0,-100.00,WNW,298,9.0,12.0,66,0.00,,,0.00,900.000000,,2013-06-03 22:03:00,
2013-06-03 12:12:00,75.0,63.0,-100.00,WNW,298,9.0,12.0,66,0.00,,,0.00,900.000000,,2013-06-03 22:12:00,
2013-06-03 12:22:00,75.0,63.0,-100.00,WNW,298,9.0,12.0,66,0.00,,,0.00,900.000000,,2013-06-03 22:22:00,
2013-06-03 12:32:00,75.0,63.0,-100.00,WNW,298,9.0,12.0,66,0.00,,,0.00,900.000000,,2013-06-03 22:32:00,
2013-06-03 12:53:00,76.0,64.0,-100.00,West,279,8.0,13.0,66,0.00,,,0.00,1006.000000,,2013-06-03 22:53:00,
2013-06-03 13:02:00,76.0,64.0,-100.00,West,279,8.0,13.0,66,0.00,,,0.00,1006.000000,,2013-06-03 23:02:00,
2013-06-03 13:12:00,76.0,64.0,-100.00,West,279,8.0,13.0,66,0.00,,,0.00,1006.000000,,2013-06-03 23:12:00,
2013-06-03 13:22:00,76.0,64.0,-100.00,West,279,8.0,13.0,66,0.00,,,0.00,1006.000000,,2013-06-03 23:22:00,
2013-06-03 13:32:00,76.0,64.0,-100.00,West,279,8.0,13.0,66,0.00,,,0.00,1006.000000,,2013-06-03 23:32:00,
2013-06-03 14:02:00,78.0,63.0,-100.00,West,260,6.0,14.0,60,0.00,,,0.00,1042.000000,,2013-06-04 00:02:00,
2013-06-03 14:12:00,78.0,63.0,-100.00,West,260,6.0,14.0,60,0.00,,,0.00,1042.000000,,2013-06-04 00:12:00,
2013-06-03 14:22:00,78.0,63.0,-100.00,West,260,6.0,14.0,60,0.00,,,0.00,1042.000000,,2013-06-04 00:22:00,
2013-06-03 14:32:00,78.0,63.0,-100.00,West,260,6.0,14.0,60,0.00,,,0.00,1042.000000,,2013-06-04 00:32:00,
2013-06-03 14:52:00,76.0,63.0,-100.00,West,279,9.0,18.0,65,0.00,,,0.00,730.000000,,2013-06-04 00:52:00,
2013-06-03 15:02:00,76.0,63.0,-100.00,West,279,9.0,18.0,65,0.00,,,0.00,730.000000,,2013-06-04 01:02:00,
2013-06-03 15:12:00,76.0,63.0,-100.00,West,279,9.0,18.0,65,0.00,,,0.00,730.000000,,2013-06-04 01:12:00,
2013-06-03 15:22:00,76.0,63.0,-100.00,West,279,9.0,18.0,65,0.00,,,0.00,730.000000,,2013-06-04 01:22:00,
2013-06-03 15:32:00,76.0,63.0,-100.00,West,279,9.0,18.0,65,0.00,,,0.00,730.000000,,2013-06-04 01:32:00,
2013-06-03 15:52:00,76.0,64.0,-100.00,WNW,286,9.0,17.0,66,0.00,,,0.00,890.000000,,2013-06-04 01:52:00,
2013-06-03 16:02:00,76.0,64.0,-100.00,WNW,286,9.0,17.0,66,0.00,,,0.00,890.000000,,2013-06-04 02:02:00,
2013-06-03 16:12:00,76.0,64.0,-100.00,WNW,286,9.0,17.0,66,0.00,,,0.00,890.000000,,2013-06-04 02:12:00,
2013-06-03 16:21:00,76.0,64.0,-100.00,WNW,286,9.0,17.0,66,0.00,,,0.00,890.000000,,2013-06-04 02:21:00,
2013-06-03 16:32:00,76.0,64.0,-100.00,WNW,286,9.0,17.0,66,0.00,,,0.00,890.000000,,2013-06-04 02:32:00,
2013-06-03 16:52:00,76.0,63.0,-100.00,WNW,287,6.0,15.0,65,0.00,,,0.00,744.000000,,2013-06-04 02:52:00,
2013-06-03 17:02:00,76.0,63.0,-100.00,WNW,287,6.0,15.0,65,0.00,,,0.00,744.000000,,2013-06-04 03:02:00,
2013-06-03 17:12:00,76.0,63.0,-100.00,WNW,287,6.0,15.0,65,0.00,,,0.00,744.000000,,2013-06-04 03:12:00,
2013-06-03 17:22:00,76.0,63.0,-100.00,WNW,287,6.0,15.0,65,0.00,,,0.00,744.000000,,2013-06-04 03:22:00,
2013-06-03 17:32:00,76.0,63.0,-100.00,WNW,287,6.0,15.0,65,0.00,,,0.00,744.000000,,2013-06-04 03:32:00,
2013-06-03 17:53:00,73.0,61.0,-100.00,SSW,202,3.0,10.0,67,0.00,,,0.00,253.000000,,2013-06-04 03:53:00,
2013-06-03 18:03:00,73.0,61.0,-100.00,SSW,202,3.0,10.0,67,0.00,,,0.00,253.000000,,2013-06-04 04:03:00,
2013-06-03 18:13:00,73.0,61.0,-100.00,SSW,202,3.0,10.0,67,0.00,,,0.00,253.000000,,2013-06-04 04:13:00,
2013-06-03 18:23:00,73.0,61.0,-100.00,SSW,202,3.0,10.0,67,0.00,,,0.00,253.000000,,2013-06-04 04:23:00,
2013-06-03 18:33:00,73.0,61.0,-100.00,SSW,202,3.0,10.0,67,0.00,,,0.00,253.000000,,2013-06-04 04:33:00,
2013-06-03 18:53:00,71.0,61.0,-100.00,WNW,283,1.0,8.0,71,0.00,,,0.00,83.000000,,2013-06-04 04:53:00,
2013-06-03 19:02:00,71.0,61.0,-100.00,WNW,283,1.0,8.0,71,0.00,,,0.00,83.000000,,2013-06-04 05:02:00,
2013-06-03 19:12:00,71.0,61.0,-100.00,WNW,283,1.0,8.0,71,0.00,,,0.00,83.000000,,2013-06-04 05:12:00,
2013-06-03 19:22:00,71.0,61.0,-100.00,WNW,283,1.0,8.0,71,0.00,,,0.00,83.000000,,2013-06-04 05:22:00,
2013-06-03 19:32:00,71.0,61.0,-100.00,WNW,283,1.0,8.0,71,0.00,,,0.00,83.000000,,2013-06-04 05:32:00,
2013-06-03 19:52:00,68.0,56.0,-100.00,NE,36,0.0,0.0,66,0.00,,,0.00,15.000000,,2013-06-04 05:52:00,
2013-06-03 20:02:00,68.0,56.0,-100.00,NE,36,0.0,0.0,66,0.00,,,0.00,15.000000,,2013-06-04 06:02:00,
2013-06-03 20:12:00,68.0,56.0,-100.00,NE,36,0.0,0.0,66,0.00,,,0.00,15.000000,,2013-06-04 06:12:00,
2013-06-03 20:22:00,68.0,56.0,-100.00,NE,36,0.0,0.0,66,0.00,,,0.00,15.000000,,2013-06-04 06:22:00,
2013-06-03 20:32:00,68.0,56.0,-100.00,NE,36,0.0,0.0,66,0.00,,,0.00,15.000000,,2013-06-04 06:32:00,
2013-06-03 20:52:00,67.0,56.0,-100.00,East,81,0.0,0.0,68,0.00,,,0.00,0.000000,,2013-06-04 06:52:00,
2013-06-03 21:02:00,67.0,56.0,-100.00,East,81,0.0,0.0,68,0.00,,,0.00,0.000000,,2013-06-04 07:02:00,
2013-06-03 21:12:00,67.0,56.0,-100.00,East,81,0.0,0.0,68,0.00,,,0.00,0.000000,,2013-06-04 07:12:00,
2013-06-03 21:22:00,67.0,56.0,-100.00,East,81,0.0,0.0,68,0.00,,,0.00,0.000000,,2013-06-04 07:22:00,
2013-06-03 21:32:00,67.0,56.0,-100.00,East,81,0.0,0.0,68,0.00,,,0.00,0.000000,,2013-06-04 07:32:00,
2013-06-03 22:02:00,65.0,55.0,-100.00,ENE,57,0.0,2.0,70,0.00,,,0.00,0.000000,,2013-06-04 08:02:00,
2013-06-03 22:12:00,65.0,55.0,-100.00,ENE,57,0.0,2.0,70,0.00,,,0.00,0.000000,,2013-06-04 08:12:00,
2013-06-03 22:22:00,65.0,55.0,-100.00,ENE,57,0.0,2.0,70,0.00,,,0.00,0.000000,,2013-06-04 08:22:00,
2013-06-03 22:32:00,65.0,55.0,-100.00,ENE,57,0.0,2.0,70,0.00,,,0.00,0.000000,,2013-06-04 08:32:00,
2013-06-03 22:52:00,64.0,55.0,-100.00,ENE,70,0.0,0.0,73,0.00,,,0.00,0.000000,,2013-06-04 08:52:00,
2013-06-03 23:02:00,64.0,55.0,-100.00,ENE,70,0.0,0.0,73,0.00,,,0.00,0.000000,,2013-06-04 09:02:00,
2013-06-03 23:12:00,64.0,55.0,-100.00,ENE,70,0.0,0.0,73,0.00,,,0.00,0.000000,,2013-06-04 09:12:00,
2013-06-03 23:22:00,64.0,55.0,-100.00,ENE,70,0.0,0.0,73,0.00,,,0.00,0.000000,,2013-06-04 09:22:00,
2013-06-03 23:32:00,64.0,55.0,-100.00,ENE,70,0.0,0.0,73,0.00,,,0.00,0.000000,,2013-06-04 09:32:00,